Regional Weather Roundup
Issued by NWS Charleston, SC

Current Version | Previous Version | Graphics & Text | Print | Product List | Glossary On
Versions: 1 2 3 4 5 6 7 8 9 10 11 12 13 14 15 16 17 18 19 20 21 22 23 24 25 26 27 28 29 30 31 32 33 34 35 36 37 38 39 40 41 42 43 44 45 46 47 48 49 50
000
ASUS42 KCHS 261312
RWRCHS

REGIONAL WEATHER ROUNDUP
NATIONAL WEATHER SERVICE CHARLESTON SC
900 AM EDT TUE SEP 26 2017

NOTE: "FAIR" INDICATES FEW OR NO CLOUDS BELOW 12,000 FEET WITH NO
SIGNIFICANT WEATHER AND/OR OBSTRUCTIONS TO VISIBILITY.

NOT ALL STATIONS ARE QUALITY CONTROLLED. USE DATA WITH CAUTION...
ESPECIALLY DEWPOINT OBSERVATIONS.

SCZ027-030-031-034>040-042>050-261400-
...SOUTHEAST SOUTH CAROLINA...

CITY           SKY/WX    TMP DP  RH WIND       PRES   REMARKS
N CHARLESTON   MOSUNNY   75  70  84 N10       29.89S
WATERFRONT PRK   N/A     75  70  84 NW7       29.73R
JOHNS ISLAND   FAIR      75  70  83 NW8       29.89S
PINOPOLIS        N/A     73  70  88 N10       29.83R
MONCKS CORNER  FAIR      73  68  83 N7        29.90S
SUMMERVILLE    FAIR      72  68  88 N6        29.91F
BEAUFORT MCAS  SUNNY     76  70  82 N9        29.92R
BEAUFORT ARPT  FAIR      73  68  83 N7        29.91S
HILTON HEAD IS SUNNY     75  68  78 NW12      29.92S
WALTERBORO     SUNNY     72  68  88 NW6       29.93S
ALLENDALE      NOT AVBL

...SOUTHERN MIDLANDS AND PEE DEE...

CITY           SKY/WX    TMP DP  RH WIND       PRES   REMARKS
GEORGETOWN     CLOUDY    70  70 100 NW6       29.89R
KINGSTREE      FAIR      72  68  88 NW6       29.91S
ORANGEBURG     SUNNY     74  65  73 N9        29.93R
BARNWELL       FAIR      75  68  78 N7        29.95R
AIKEN          FAIR      72  64  78 N8        29.99S
MANNING        FAIR      72  64  78 MISG      29.91S
COLUMBIA       MOSUNNY   75  65  70 NE7       29.94R
SUMTER         MOSUNNY   73  64  74 N9        29.91R
FLORENCE       CLOUDY    72  68  87 N13       29.91S
MYRTLE BEACH   CLOUDY    74  70  87 NW10      29.88
N MYRTLE BEACH CLOUDY    75  70  84 N9G20     29.85R

$$

GAZ063-065-086>088-099>101-113>116-118-119-134>141-150-261400-
...SOUTHEAST GEORGIA...

CITY           SKY/WX    TMP DP  RH WIND       PRES   REMARKS
SAVANNAH ARPT  MOSUNNY   75  68  78 NW8       29.93S
HUNTER AAF     SUNNY     75  68  79 N6        29.90S
FORT STEWART   SUNNY     74  67  78 N7        29.91S
STATESBORO     SUNNY     73  66  77 N5        29.95R
SYLVANIA       SUNNY     73  70  91 N3        29.95S
CLAXTON        FAIR      73  69  88 CALM      29.95R

...CSRA...CENTRAL AND FAR SOUTHEAST GEORGIA...

CITY           SKY/WX    TMP DP  RH WIND       PRES   REMARKS
THOMSON        SUNNY     69  65  85 NE3       30.03S
AUGUSTA-BUSH   SUNNY     73  66  78 NW5       29.96R
AUGUSTA-DANIEL SUNNY     75  66  73 N7        29.97R
SWAINSBORO     FAIR      72  70  94 CALM      29.97S
VIDALIA        SUNNY     73  70  88 CALM      29.95S
EASTMAN        FAIR      69  69 100 CALM      29.99S
HAZLEHURST     FAIR      73  62  69 CALM      29.95S
ALMA           SUNNY     73  66  78 NW3       29.95R
WAYCROSS       SUNNY     72  68  88 CALM      29.95R
JESUP          NOT AVBL
BAXLEY         FAIR      70  70 100 N3        29.95R
BRUNSWICK      SUNNY     72  68  88 NW3       29.94R
SAINT SIMONS   SUNNY     76  70  82 NW7       29.92R

$$

SCZ027-028-034-036>038-045-046-048>050-GAZ119-141-261400-
...LAKE AND SUPPLEMENTAL COASTAL OBSERVATIONS...

STATION/POSITION TIME  TEMP    WIND        PRES    WAVE   SWELL
                       AIR SEA DIR/SP/G            HT/PER HT/PER/DIR
                 (UTC) (F)     (DEG/KT/KT) (MB)    (FT/S) (FT/S/D)
WINYAH BAY       NOT AVBL
LAKE MURRAY      1220   71     320/  1/  4 1013.5
ACE BASIN NERRS  1145   70     310/  1     1013.0
FORT PULASKI     1248   73 80  340/  7/  9 1013.5R
SAPELO ISLAND    1200   72        CALM     1013.0

$$

ANZ835-935-AMZ111-154-330-350-352-354-370-450-454-472-261400-
...C-MAN AND BUOY OBSERVATIONS...

STATION/POSITION TIME  TEMP    WIND        PRES    WAVE   SWELL
                       AIR SEA DIR/SP/G            HT/PER HT/PER/DIR
                 (UTC) (F)     (DEG/KT/KT) (MB)    (FT/S) (FT/S/D)
BUOY 41004       1250   75 81  350/ 14/ 17 1010.8R   7/12   5/110/12
BUOY 41008       1150   76 80  330/ 10/ 12 1012.2    4/12   3/ 70/12
FOLLY BEACH CMAN 1200   74     310/  5/  8 1012.6R
CAPERS NEARSHORE 1208   72 80  330/ 14/ 19 1011.1R
FRIPP NEARSHORE  1208   75     350/ 14/ 17 1019.1R


STATION/POSITION TIME  TEMP    WIND        PRES    WAVE   SWELL
                       AIR SEA DIR/SP/G            HT/PER HT/PER/DIR
                 (UTC) (F)     (DEG/KT/KT) (MB)    (FT/S) (FT/S/D)
5E ST. MARYS GA  1230      81                N/A     3/12   2/ 70/12
FRYING PAN BUOY  1250   76 81  340/ 23/ 29 1008.5R  11/12  10/120/12
BUOY 41025       1250   76 79   20/ 33/ 43 1002.9S  18/14  15/130/14
CAPE LOOKOUT NC  1200   76     350/ 24/ 28 1006.4R
BUOY 41002       1150   80 81  290/ 31/ 39  998.3   14/ 9
BUOY 41010       1250          310/ 12/ 16 1011.9R   7/11   7/11
ST AUGUSTINE FL  1200   74 81  300/  4/  5 1013.1R


$$




USA.gov is the U.S. government's official web portal to all federal, state and local government web resources and services.